GEFSMA_prec_meanprecacc_192.txt.gz
Total_Precipitation_Accumulation
1.95 1.95 1.90 1.87 1.80 1.89 2.05 2.22 2.26 2.60 2.70 2.33 1.95 1.84 1.82 1.89 1.78 1.78 1.71 1.64 1.57 1.69 2.04 2.25 2.11 1.88 1.59 1.37 1.24 1.13 1.01 0.88 0.80 0.69 0.71 0.79 0.79 0.73 0.66 0.60 0.53 0.46 0.41
2.06 2.17 2.05 2.02 1.90 1.86 2.02 2.19 2.36 2.82 2.84 2.66 2.22 2.00 1.92 1.88 1.72 1.65 1.73 1.92 1.75 1.64 1.75 2.01 2.20 2.16 2.01 1.76 1.50 1.31 1.17 1.08 0.93 0.71 0.60 0.67 0.71 0.70 0.68 0.67 0.61 0.50 0.42
2.04 2.06 1.91 1.83 1.86 2.00 2.15 2.20 2.35 2.65 2.41 2.39 2.18 2.03 1.84 1.65 1.50 1.44 1.60 1.78 1.67 1.61 1.72 1.84 2.01 2.09 2.18 2.17 2.01 1.81 1.49 1.29 1.11 0.87 0.69 0.64 0.67 0.64 0.62 0.64 0.63 0.56 0.45
1.95 2.09 1.91 1.76 2.05 2.12 2.20 2.41 2.54 2.56 2.52 2.52 2.29 1.98 1.75 1.63 1.33 1.23 1.25 1.33 1.51 1.33 1.57 1.78 1.82 1.87 2.08 2.32 2.48 2.49 2.13 1.73 1.43 1.19 0.96 0.82 0.81 0.75 0.64 0.60 0.62 0.55 0.41
2.01 2.26 2.23 2.28 2.38 2.41 2.40 2.29 2.59 2.60 2.51 2.51 2.23 1.96 1.60 1.41 1.22 1.08 1.01 0.95 1.08 1.16 1.23 1.39 1.51 1.59 1.94 2.46 2.75 2.87 2.77 2.38 1.86 1.57 1.43 1.26 1.18 0.98 0.75 0.65 0.65 0.62 0.49
2.12 2.45 2.31 2.27 2.35 2.47 2.48 2.43 2.44 2.47 2.27 2.24 2.09 1.84 1.46 1.12 1.03 0.94 0.81 0.78 0.82 0.76 0.90 1.10 1.32 1.20 1.53 2.04 2.39 2.73 2.99 2.84 2.32 1.98 1.86 1.74 1.64 1.39 0.96 0.75 0.71 0.69 0.64
2.09 2.38 2.28 2.37 2.32 2.31 2.32 2.34 2.37 2.25 1.92 2.11 2.20 1.79 1.33 1.01 0.97 0.75 0.68 0.69 0.69 0.66 0.81 1.06 1.21 1.21 1.17 1.28 1.58 1.96 2.48 2.72 2.52 2.20 2.06 1.94 1.97 1.81 1.30 0.99 0.86 0.73 0.74
2.22 2.20 2.26 2.23 2.26 2.35 2.25 2.20 2.27 2.09 1.75 1.87 2.03 2.11 1.58 1.24 0.95 0.66 0.70 0.77 0.82 0.86 0.86 0.93 1.06 1.21 1.22 1.45 1.33 1.29 1.73 2.31 2.65 2.58 2.31 1.94 1.78 1.70 1.50 1.36 1.16 0.96 0.93
2.36 2.31 2.25 2.13 2.07 1.95 1.92 1.97 2.01 1.99 1.83 1.73 1.90 2.17 1.82 1.40 1.17 0.83 0.75 0.79 0.93 1.08 1.04 1.01 1.02 1.18 1.29 1.57 1.71 1.48 1.32 1.61 2.22 2.78 2.78 2.28 1.78 1.54 1.48 1.49 1.46 1.28 1.17
2.18 1.95 1.81 1.84 1.83 1.76 1.73 1.55 1.61 1.69 1.62 1.50 1.62 1.72 1.77 1.79 1.71 1.18 0.84 0.77 0.90 1.03 1.11 1.00 0.93 1.05 1.23 1.44 1.70 1.62 1.26 1.16 1.45 2.19 2.66 2.54 2.13 1.69 1.50 1.54 1.79 1.76 1.44
1.87 1.59 1.49 1.56 1.57 1.51 1.42 1.36 1.44 1.35 1.28 1.27 1.42 1.59 1.68 1.74 1.72 1.62 1.26 1.13 1.09 0.96 0.96 0.95 1.01 1.03 1.08 1.35 1.63 1.49 1.43 1.30 1.23 1.38 1.74 2.04 2.15 1.96 1.83 1.98 2.30 2.44 2.17
1.53 1.31 1.21 1.32 1.40 1.41 1.37 1.31 1.34 1.24 1.24 1.36 1.36 1.43 1.59 1.56 1.58 1.68 1.45 1.33 1.22 0.99 0.98 1.06 1.05 1.11 1.11 1.25 1.26 1.41 1.39 1.19 1.07 1.04 1.13 1.38 1.63 1.75 1.83 2.03 2.44 2.79 2.86
1.27 1.20 1.21 1.26 1.30 1.36 1.28 1.27 1.24 1.27 1.38 1.44 1.39 1.36 1.45 1.46 1.50 1.64 1.62 1.47 1.37 1.21 1.23 1.22 1.06 0.99 0.90 1.00 1.11 1.16 1.03 0.93 0.84 0.80 0.82 0.91 1.05 1.28 1.51 1.76 2.14 2.53 2.79
1.29 1.34 1.31 1.23 1.20 1.24 1.16 1.29 1.24 1.26 1.37 1.41 1.26 1.43 1.46 1.45 1.60 1.75 1.81 1.81 1.65 1.45 1.39 1.34 1.20 1.04 0.99 0.99 1.02 1.01 0.89 0.80 0.64 0.61 0.62 0.64 0.72 0.86 1.08 1.28 1.53 1.82 2.06
1.35 1.47 1.44 1.38 1.30 1.31 1.37 1.51 1.48 1.51 1.65 1.62 1.59 1.72 1.65 1.53 1.58 1.63 1.73 1.82 1.92 1.72 1.49 1.40 1.28 1.09 1.05 1.09 1.04 0.95 1.01 0.87 0.66 0.56 0.51 0.49 0.55 0.66 0.72 0.80 0.96 1.14 1.34
1.25 1.41 1.47 1.44 1.39 1.40 1.50 1.63 1.66 1.79 1.88 1.85 1.87 1.94 1.88 1.73 1.73 1.77 1.76 1.86 2.00 1.90 1.61 1.34 1.26 1.13 1.11 1.00 1.05 0.99 0.98 0.89 0.75 0.63 0.52 0.48 0.49 0.53 0.54 0.58 0.67 0.77 0.91
1.24 1.29 1.38 1.45 1.42 1.43 1.52 1.59 1.58 1.80 1.90 1.88 1.84 1.83 1.77 1.78 1.75 1.69 1.77 1.90 2.04 2.05 1.75 1.42 1.44 1.45 1.42 1.31 1.27 1.17 1.05 0.98 0.82 0.72 0.61 0.56 0.52 0.52 0.53 0.54 0.56 0.60 0.66
1.30 1.33 1.41 1.43 1.32 1.30 1.43 1.48 1.52 1.66 1.74 1.73 1.68 1.69 1.55 1.56 1.60 1.54 1.64 1.71 1.81 2.00 1.95 1.74 1.76 1.78 1.74 1.61 1.55 1.48 1.31 1.08 0.87 0.82 0.68 0.62 0.58 0.54 0.50 0.51 0.54 0.60 0.64
1.30 1.31 1.32 1.34 1.37 1.47 1.54 1.53 1.50 1.47 1.48 1.53 1.67 1.75 1.59 1.57 1.52 1.52 1.53 1.51 1.58 1.72 1.84 1.81 1.81 1.88 1.84 1.78 1.66 1.49 1.37 1.22 0.96 0.86 0.79 0.69 0.62 0.57 0.55 0.54 0.55 0.60 0.66
1.23 1.26 1.28 1.29 1.35 1.47 1.50 1.53 1.56 1.49 1.41 1.40 1.47 1.53 1.52 1.52 1.49 1.56 1.52 1.50 1.51 1.60 1.70 1.73 1.76 1.89 1.89 1.80 1.79 1.61 1.58 1.44 1.27 1.04 0.94 0.83 0.81 0.78 0.73 0.65 0.58 0.58 0.67
1.25 1.32 1.36 1.36 1.31 1.34 1.28 1.28 1.29 1.27 1.31 1.26 1.19 1.20 1.23 1.32 1.32 1.31 1.24 1.36 1.48 1.52 1.55 1.58 1.62 1.79 1.98 2.03 1.86 1.76 1.82 1.78 1.62 1.36 1.25 1.06 0.94 0.87 0.81 0.75 0.69 0.63 0.64
1.25 1.32 1.31 1.37 1.35 1.13 1.20 1.19 1.20 1.32 1.38 1.34 1.27 1.19 1.15 1.13 1.06 1.02 1.00 1.07 1.26 1.38 1.42 1.49 1.52 1.66 1.87 2.07 2.12 2.07 1.97 1.89 1.84 1.69 1.61 1.48 1.27 1.15 1.03 0.91 0.82 0.77 0.73
1.36 1.37 1.33 1.32 1.33 1.36 1.37 1.24 1.10 1.09 1.17 1.20 1.21 1.20 1.05 0.96 1.04 1.00 1.03 1.02 1.03 1.13 1.22 1.34 1.43 1.47 1.61 1.83 2.06 2.01 2.07 2.09 2.06 2.04 2.06 1.97 1.70 1.48 1.27 1.10 0.94 0.75 0.69
1.58 1.57 1.52 1.42 1.45 1.47 1.38 1.18 1.10 1.05 1.10 1.14 1.17 1.21 1.21 1.12 1.10 1.17 1.20 1.16 1.07 1.05 1.08 1.10 1.15 1.27 1.47 1.71 1.99 1.98 1.99 2.05 2.10 2.12 2.16 2.15 1.93 1.76 1.53 1.36 1.20 0.94 0.76
1.66 1.62 1.61 1.65 1.61 1.66 1.64 1.40 1.32 1.23 1.26 1.27 1.28 1.27 1.25 1.17 1.23 1.19 1.17 1.17 1.12 1.07 1.06 1.09 1.07 1.20 1.40 1.51 1.71 1.83 1.83 1.87 1.81 1.75 1.87 2.06 2.05 1.98 1.83 1.59 1.34 1.11 0.87
1.74 1.78 1.78 1.79 1.80 1.87 2.02 1.76 1.55 1.44 1.46 1.43 1.47 1.40 1.33 1.25 1.26 1.20 1.10 1.12 1.11 1.11 1.20 1.18 1.14 1.14 1.20 1.37 1.53 1.63 1.78 1.90 1.80 1.66 1.46 1.55 1.73 1.91 2.04 1.87 1.61 1.39 1.22

GEFSMA_prec_meanprecacc_198.txt.gz
Total_Precipitation_Accumulation
1.97 1.97 1.93 1.89 1.81 1.89 2.06 2.25 2.28 2.62 2.73 2.35 1.98 1.87 1.86 1.92 1.83 1.81 1.73 1.65 1.57 1.70 2.05 2.26 2.11 1.88 1.60 1.37 1.24 1.13 1.01 0.88 0.80 0.69 0.71 0.79 0.79 0.73 0.66 0.60 0.54 0.46 0.41
2.07 2.18 2.06 2.03 1.91 1.87 2.03 2.20 2.37 2.84 2.87 2.68 2.25 2.02 1.94 1.90 1.75 1.69 1.75 1.93 1.76 1.64 1.76 2.02 2.21 2.17 2.01 1.76 1.50 1.31 1.17 1.08 0.93 0.71 0.60 0.67 0.71 0.70 0.68 0.67 0.61 0.50 0.42
2.06 2.08 1.93 1.84 1.87 2.01 2.17 2.21 2.36 2.67 2.44 2.41 2.21 2.05 1.86 1.68 1.52 1.46 1.62 1.79 1.68 1.62 1.73 1.86 2.03 2.10 2.19 2.18 2.02 1.82 1.50 1.29 1.12 0.88 0.70 0.65 0.67 0.64 0.62 0.65 0.64 0.56 0.45
1.96 2.11 1.93 1.77 2.06 2.14 2.22 2.43 2.56 2.59 2.55 2.55 2.32 2.01 1.78 1.65 1.35 1.25 1.26 1.35 1.53 1.36 1.59 1.80 1.84 1.88 2.10 2.34 2.49 2.50 2.14 1.73 1.43 1.19 0.97 0.82 0.82 0.76 0.64 0.60 0.63 0.56 0.42
2.03 2.28 2.24 2.30 2.39 2.42 2.42 2.31 2.60 2.61 2.54 2.54 2.26 1.98 1.63 1.44 1.24 1.11 1.05 0.99 1.11 1.19 1.27 1.42 1.54 1.61 1.96 2.49 2.78 2.91 2.81 2.40 1.88 1.58 1.44 1.27 1.19 0.99 0.76 0.66 0.66 0.63 0.50
2.13 2.47 2.32 2.28 2.36 2.49 2.51 2.46 2.47 2.49 2.28 2.25 2.10 1.86 1.48 1.16 1.06 0.98 0.85 0.83 0.87 0.81 0.95 1.18 1.41 1.25 1.56 2.08 2.44 2.80 3.06 2.91 2.36 2.01 1.88 1.77 1.67 1.41 0.98 0.77 0.72 0.70 0.65
2.10 2.40 2.30 2.39 2.34 2.34 2.35 2.39 2.41 2.27 1.93 2.12 2.22 1.81 1.36 1.06 1.04 0.81 0.73 0.74 0.75 0.73 0.91 1.17 1.33 1.32 1.22 1.32 1.63 2.02 2.55 2.79 2.58 2.25 2.10 1.98 2.00 1.83 1.32 1.01 0.87 0.75 0.75
2.24 2.23 2.30 2.26 2.30 2.38 2.28 2.24 2.31 2.15 1.79 1.91 2.07 2.14 1.60 1.26 0.97 0.69 0.74 0.83 0.91 0.97 0.98 1.07 1.21 1.32 1.30 1.51 1.38 1.33 1.79 2.37 2.73 2.65 2.37 1.99 1.82 1.74 1.53 1.38 1.18 0.98 0.95
2.40 2.35 2.29 2.18 2.11 1.99 1.95 2.00 2.05 2.04 1.88 1.78 1.95 2.22 1.85 1.42 1.19 0.84 0.79 0.86 1.04 1.23 1.20 1.21 1.20 1.32 1.41 1.67 1.80 1.54 1.37 1.67 2.32 2.90 2.88 2.36 1.86 1.60 1.54 1.54 1.50 1.32 1.20
2.26 2.01 1.86 1.88 1.87 1.81 1.77 1.57 1.64 1.74 1.68 1.53 1.65 1.76 1.81 1.83 1.75 1.20 0.86 0.81 0.98 1.13 1.25 1.16 1.14 1.25 1.40 1.59 1.82 1.72 1.37 1.27 1.54 2.31 2.77 2.64 2.21 1.75 1.56 1.60 1.86 1.82 1.49
1.95 1.66 1.55 1.62 1.63 1.57 1.48 1.41 1.49 1.42 1.35 1.31 1.46 1.64 1.74 1.80 1.78 1.67 1.29 1.18 1.16 1.02 1.05 1.08 1.20 1.26 1.27 1.51 1.79 1.62 1.54 1.42 1.33 1.45 1.81 2.10 2.21 2.02 1.89 2.05 2.38 2.53 2.26
1.61 1.37 1.26 1.37 1.46 1.48 1.44 1.38 1.40 1.30 1.30 1.40 1.39 1.48 1.66 1.64 1.65 1.75 1.49 1.36 1.27 1.03 1.02 1.13 1.16 1.30 1.33 1.44 1.46 1.58 1.50 1.28 1.16 1.12 1.21 1.44 1.70 1.81 1.89 2.09 2.51 2.87 2.95
1.33 1.25 1.27 1.34 1.36 1.41 1.34 1.33 1.31 1.34 1.44 1.49 1.44 1.42 1.51 1.52 1.57 1.72 1.69 1.52 1.41 1.24 1.27 1.27 1.13 1.11 1.08 1.20 1.28 1.29 1.14 1.03 0.91 0.86 0.88 0.96 1.10 1.33 1.56 1.81 2.19 2.59 2.86
1.35 1.40 1.37 1.29 1.26 1.30 1.23 1.39 1.32 1.36 1.47 1.50 1.35 1.51 1.53 1.52 1.69 1.85 1.91 1.90 1.72 1.50 1.44 1.40 1.29 1.17 1.13 1.14 1.15 1.11 0.97 0.89 0.73 0.68 0.68 0.69 0.77 0.91 1.12 1.31 1.57 1.86 2.11
1.46 1.57 1.52 1.45 1.37 1.39 1.47 1.65 1.62 1.64 1.77 1.72 1.68 1.81 1.74 1.62 1.67 1.74 1.84 1.93 2.01 1.79 1.57 1.50 1.41 1.22 1.15 1.18 1.13 1.02 1.07 0.94 0.75 0.65 0.60 0.56 0.60 0.70 0.76 0.84 1.00 1.19 1.38
1.38 1.54 1.62 1.58 1.52 1.52 1.64 1.78 1.79 1.91 2.00 1.96 1.98 2.05 1.98 1.83 1.84 1.88 1.87 1.97 2.12 2.03 1.72 1.45 1.35 1.22 1.19 1.08 1.12 1.04 1.02 0.94 0.81 0.70 0.60 0.55 0.56 0.58 0.58 0.63 0.72 0.83 0.97
1.36 1.44 1.56 1.63 1.58 1.57 1.66 1.73 1.71 1.93 2.03 2.03 1.97 1.93 1.85 1.89 1.89 1.84 1.91 2.03 2.17 2.18 1.88 1.53 1.52 1.52 1.50 1.39 1.35 1.25 1.13 1.06 0.89 0.80 0.69 0.64 0.59 0.59 0.59 0.60 0.62 0.66 0.72
1.44 1.48 1.56 1.58 1.47 1.46 1.59 1.63 1.67 1.82 1.92 1.87 1.80 1.79 1.64 1.68 1.74 1.66 1.75 1.82 1.90 2.09 2.03 1.82 1.82 1.85 1.82 1.69 1.62 1.56 1.39 1.18 0.98 0.92 0.79 0.71 0.68 0.63 0.59 0.59 0.62 0.67 0.71
1.45 1.49 1.50 1.50 1.51 1.59 1.66 1.65 1.62 1.59 1.58 1.63 1.78 1.85 1.66 1.64 1.58 1.59 1.61 1.58 1.64 1.78 1.90 1.86 1.86 1.93 1.89 1.85 1.74 1.56 1.45 1.32 1.05 0.98 0.93 0.84 0.76 0.70 0.64 0.63 0.64 0.69 0.75
1.35 1.43 1.47 1.53 1.56 1.60 1.61 1.64 1.65 1.57 1.49 1.48 1.55 1.59 1.57 1.57 1.53 1.61 1.56 1.54 1.55 1.66 1.76 1.78 1.81 1.93 1.95 1.86 1.86 1.68 1.66 1.54 1.38 1.15 1.07 0.96 0.93 0.91 0.84 0.75 0.68 0.68 0.77
1.37 1.44 1.49 1.50 1.45 1.45 1.37 1.36 1.39 1.35 1.38 1.33 1.26 1.25 1.27 1.36 1.36 1.37 1.29 1.41 1.54 1.60 1.63 1.65 1.68 1.84 2.02 2.07 1.91 1.83 1.89 1.85 1.69 1.43 1.32 1.14 1.03 0.96 0.91 0.86 0.80 0.75 0.76
1.36 1.43 1.43 1.48 1.45 1.22 1.31 1.31 1.31 1.43 1.50 1.47 1.38 1.29 1.22 1.19 1.13 1.07 1.05 1.13 1.32 1.46 1.50 1.57 1.57 1.71 1.92 2.12 2.18 2.14 2.03 1.96 1.91 1.77 1.70 1.56 1.34 1.23 1.13 1.03 0.96 0.91 0.87
1.49 1.48 1.43 1.41 1.42 1.45 1.47 1.33 1.20 1.20 1.29 1.34 1.33 1.32 1.18 1.08 1.15 1.09 1.10 1.08 1.09 1.19 1.27 1.40 1.48 1.52 1.66 1.88 2.11 2.08 2.16 2.20 2.18 2.15 2.16 2.07 1.79 1.58 1.37 1.20 1.05 0.86 0.79
1.69 1.66 1.59 1.49 1.52 1.54 1.45 1.25 1.19 1.14 1.19 1.23 1.26 1.28 1.27 1.19 1.18 1.25 1.26 1.21 1.11 1.08 1.11 1.13 1.18 1.30 1.50 1.75 2.03 2.03 2.05 2.13 2.18 2.19 2.24 2.25 2.04 1.86 1.62 1.43 1.27 1.02 0.85
1.76 1.71 1.68 1.71 1.67 1.71 1.70 1.48 1.40 1.30 1.33 1.35 1.35 1.33 1.29 1.20 1.27 1.23 1.20 1.20 1.15 1.10 1.09 1.13 1.12 1.25 1.45 1.55 1.74 1.86 1.86 1.90 1.86 1.80 1.94 2.13 2.13 2.06 1.90 1.64 1.38 1.17 0.94
1.82 1.86 1.86 1.86 1.86 1.92 2.08 1.85 1.64 1.51 1.54 1.51 1.55 1.47 1.40 1.29 1.29 1.22 1.11 1.14 1.12 1.13 1.22 1.21 1.17 1.18 1.24 1.40 1.55 1.64 1.79 1.92 1.83 1.70 1.50 1.60 1.77 1.94 2.07 1.90 1.64 1.42 1.27

GEFSMA_prec_meanprecacc_204.txt.gz
Total_Precipitation_Accumulation
1.98 1.97 1.93 1.90 1.81 1.90 2.06 2.25 2.29 2.63 2.74 2.38 2.01 1.89 1.87 1.94 1.86 1.84 1.74 1.66 1.59 1.72 2.08 2.31 2.16 1.91 1.62 1.38 1.25 1.14 1.03 0.89 0.80 0.70 0.71 0.80 0.80 0.74 0.67 0.60 0.54 0.47 0.42
2.09 2.19 2.06 2.04 1.91 1.87 2.03 2.21 2.38 2.85 2.89 2.70 2.27 2.04 1.96 1.93 1.77 1.70 1.76 1.94 1.77 1.66 1.79 2.06 2.27 2.22 2.05 1.80 1.53 1.33 1.19 1.09 0.94 0.72 0.61 0.68 0.72 0.70 0.69 0.67 0.61 0.51 0.43
2.07 2.09 1.93 1.84 1.88 2.02 2.18 2.22 2.37 2.69 2.45 2.43 2.23 2.07 1.88 1.70 1.53 1.47 1.64 1.81 1.70 1.64 1.77 1.90 2.07 2.16 2.25 2.25 2.08 1.88 1.54 1.31 1.13 0.89 0.71 0.65 0.68 0.65 0.63 0.66 0.65 0.57 0.46
1.98 2.13 1.95 1.78 2.07 2.15 2.24 2.45 2.58 2.61 2.57 2.58 2.35 2.02 1.80 1.67 1.36 1.26 1.28 1.38 1.56 1.37 1.62 1.85 1.90 1.94 2.16 2.41 2.61 2.62 2.22 1.78 1.47 1.22 0.99 0.84 0.83 0.77 0.65 0.61 0.64 0.57 0.43
2.05 2.31 2.27 2.33 2.41 2.44 2.44 2.34 2.63 2.63 2.55 2.56 2.28 2.00 1.64 1.45 1.25 1.12 1.06 1.02 1.15 1.22 1.30 1.45 1.60 1.69 2.04 2.58 2.89 3.02 2.92 2.49 1.95 1.64 1.48 1.31 1.22 1.01 0.78 0.67 0.67 0.64 0.52
2.16 2.50 2.36 2.32 2.42 2.53 2.54 2.49 2.50 2.51 2.29 2.27 2.11 1.87 1.49 1.17 1.08 0.99 0.87 0.85 0.89 0.85 1.01 1.23 1.45 1.31 1.65 2.18 2.53 2.91 3.18 3.03 2.47 2.11 1.97 1.84 1.73 1.46 1.01 0.79 0.74 0.72 0.66
2.15 2.45 2.34 2.44 2.41 2.41 2.41 2.43 2.45 2.31 1.96 2.15 2.25 1.83 1.37 1.07 1.05 0.82 0.74 0.77 0.78 0.77 0.95 1.22 1.39 1.37 1.30 1.39 1.71 2.11 2.67 2.94 2.73 2.38 2.22 2.09 2.10 1.92 1.39 1.06 0.92 0.78 0.78
2.31 2.31 2.37 2.33 2.36 2.44 2.34 2.29 2.35 2.18 1.83 1.96 2.13 2.18 1.62 1.27 0.98 0.70 0.75 0.84 0.93 1.00 1.02 1.11 1.26 1.38 1.36 1.58 1.45 1.40 1.87 2.49 2.87 2.80 2.52 2.11 1.93 1.83 1.62 1.46 1.26 1.05 1.00
2.49 2.44 2.38 2.27 2.19 2.06 2.02 2.04 2.08 2.08 1.92 1.83 2.00 2.27 1.88 1.43 1.19 0.85 0.80 0.87 1.06 1.25 1.22 1.24 1.24 1.37 1.47 1.75 1.88 1.61 1.44 1.75 2.43 3.02 3.02 2.50 1.96 1.69 1.63 1.62 1.59 1.41 1.28
2.34 2.10 1.95 1.97 1.95 1.88 1.82 1.61 1.68 1.78 1.73 1.57 1.70 1.80 1.84 1.86 1.77 1.20 0.87 0.82 1.00 1.15 1.26 1.18 1.16 1.28 1.45 1.65 1.89 1.78 1.42 1.32 1.63 2.41 2.88 2.74 2.31 1.85 1.63 1.67 1.94 1.92 1.58
2.03 1.74 1.64 1.70 1.69 1.63 1.54 1.46 1.54 1.46 1.39 1.36 1.50 1.67 1.77 1.83 1.82 1.69 1.30 1.20 1.17 1.03 1.06 1.10 1.22 1.29 1.32 1.58 1.87 1.70 1.63 1.49 1.40 1.53 1.90 2.20 2.31 2.11 1.98 2.13 2.47 2.63 2.36
1.69 1.45 1.35 1.45 1.54 1.55 1.51 1.46 1.48 1.37 1.37 1.45 1.42 1.51 1.69 1.67 1.68 1.78 1.51 1.38 1.29 1.05 1.04 1.15 1.17 1.32 1.38 1.50 1.54 1.67 1.60 1.38 1.26 1.22 1.30 1.54 1.79 1.90 1.97 2.19 2.62 2.98 3.06
1.40 1.33 1.35 1.42 1.45 1.50 1.43 1.43 1.43 1.44 1.54 1.56 1.48 1.46 1.56 1.58 1.63 1.78 1.73 1.56 1.45 1.28 1.30 1.30 1.17 1.16 1.14 1.28 1.36 1.37 1.21 1.10 0.99 0.93 0.95 1.02 1.16 1.38 1.62 1.88 2.28 2.70 2.97
1.44 1.47 1.44 1.37 1.34 1.39 1.33 1.52 1.45 1.46 1.57 1.58 1.42 1.58 1.60 1.60 1.79 1.96 2.02 2.00 1.79 1.57 1.52 1.52 1.41 1.27 1.23 1.23 1.25 1.22 1.06 0.97 0.80 0.74 0.75 0.77 0.84 0.97 1.19 1.39 1.66 1.95 2.20
1.54 1.65 1.60 1.51 1.43 1.45 1.56 1.77 1.74 1.73 1.86 1.80 1.76 1.88 1.83 1.75 1.82 1.89 1.99 2.08 2.15 1.93 1.74 1.70 1.57 1.36 1.26 1.27 1.24 1.13 1.17 1.04 0.84 0.74 0.68 0.64 0.68 0.77 0.83 0.91 1.07 1.26 1.46
1.46 1.63 1.71 1.67 1.60 1.60 1.74 1.89 1.89 2.01 2.11 2.07 2.10 2.17 2.10 1.96 1.97 2.00 1.99 2.10 2.27 2.21 1.90 1.59 1.48 1.32 1.29 1.18 1.23 1.13 1.11 1.04 0.90 0.79 0.69 0.64 0.64 0.67 0.67 0.70 0.79 0.89 1.05
1.45 1.52 1.63 1.71 1.68 1.68 1.77 1.82 1.80 2.01 2.11 2.11 2.08 2.06 1.96 1.98 1.97 1.91 1.98 2.12 2.28 2.31 2.01 1.65 1.61 1.60 1.57 1.45 1.41 1.31 1.20 1.14 0.96 0.88 0.77 0.72 0.68 0.67 0.68 0.69 0.71 0.74 0.81
1.51 1.55 1.63 1.66 1.57 1.57 1.71 1.74 1.80 1.95 1.99 1.94 1.89 1.87 1.69 1.73 1.77 1.70 1.81 1.89 1.97 2.16 2.10 1.87 1.87 1.89 1.85 1.73 1.67 1.61 1.45 1.24 1.03 0.97 0.84 0.78 0.75 0.70 0.68 0.68 0.71 0.75 0.80
1.51 1.55 1.56 1.57 1.60 1.69 1.75 1.72 1.69 1.66 1.63 1.67 1.82 1.89 1.70 1.67 1.60 1.61 1.65 1.63 1.68 1.82 1.94 1.89 1.88 1.96 1.92 1.89 1.78 1.61 1.50 1.36 1.10 1.02 0.97 0.89 0.82 0.75 0.71 0.70 0.71 0.77 0.84
1.42 1.51 1.56 1.63 1.68 1.71 1.70 1.71 1.71 1.62 1.53 1.53 1.61 1.64 1.60 1.60 1.56 1.64 1.59 1.57 1.58 1.69 1.79 1.81 1.83 1.97 1.99 1.91 1.90 1.72 1.70 1.58 1.41 1.18 1.10 0.99 0.98 0.95 0.89 0.81 0.76 0.77 0.87
1.47 1.55 1.59 1.61 1.56 1.54 1.44 1.42 1.44 1.40 1.43 1.36 1.30 1.29 1.31 1.40 1.41 1.41 1.32 1.45 1.58 1.64 1.68 1.71 1.74 1.91 2.08 2.13 1.96 1.87 1.93 1.88 1.71 1.46 1.36 1.18 1.07 1.01 0.97 0.93 0.88 0.83 0.85
1.48 1.54 1.53 1.58 1.54 1.29 1.37 1.37 1.37 1.48 1.55 1.52 1.44 1.34 1.26 1.23 1.17 1.12 1.09 1.17 1.37 1.51 1.57 1.64 1.65 1.78 1.98 2.18 2.23 2.17 2.07 2.00 1.95 1.81 1.73 1.60 1.39 1.29 1.19 1.09 1.04 0.98 0.92
1.61 1.57 1.52 1.50 1.51 1.54 1.56 1.40 1.27 1.27 1.36 1.40 1.40 1.38 1.23 1.12 1.20 1.14 1.14 1.12 1.12 1.22 1.31 1.45 1.54 1.58 1.73 1.95 2.16 2.12 2.20 2.24 2.23 2.20 2.22 2.15 1.86 1.65 1.43 1.26 1.10 0.89 0.82
1.78 1.73 1.65 1.55 1.58 1.59 1.53 1.32 1.25 1.20 1.25 1.29 1.32 1.33 1.31 1.23 1.23 1.30 1.31 1.25 1.15 1.12 1.16 1.18 1.24 1.36 1.57 1.82 2.09 2.09 2.11 2.20 2.26 2.27 2.31 2.32 2.08 1.89 1.65 1.46 1.31 1.05 0.88
1.86 1.79 1.75 1.76 1.71 1.77 1.77 1.55 1.47 1.37 1.41 1.43 1.43 1.40 1.38 1.30 1.36 1.30 1.25 1.24 1.19 1.14 1.14 1.18 1.17 1.29 1.50 1.60 1.79 1.90 1.90 1.95 1.91 1.85 1.98 2.17 2.15 2.08 1.92 1.66 1.40 1.18 0.95
1.94 1.98 1.97 1.96 1.95 1.99 2.15 1.91 1.71 1.58 1.63 1.63 1.69 1.62 1.54 1.42 1.41 1.31 1.18 1.19 1.17 1.16 1.24 1.23 1.20 1.21 1.26 1.43 1.59 1.66 1.81 1.93 1.84 1.71 1.51 1.61 1.79 1.96 2.09 1.91 1.65 1.43 1.27

GEFSMA_prec_meanprecacc_210.txt.gz
Total_Precipitation_Accumulation
2.00 2.00 1.95 1.93 1.83 1.91 2.08 2.27 2.31 2.66 2.77 2.40 2.02 1.89 1.88 1.95 1.86 1.84 1.75 1.67 1.61 1.74 2.11 2.35 2.20 1.96 1.65 1.41 1.27 1.16 1.04 0.90 0.81 0.71 0.72 0.80 0.80 0.74 0.67 0.61 0.55 0.48 0.42
2.12 2.23 2.10 2.07 1.94 1.90 2.05 2.24 2.41 2.89 2.92 2.73 2.30 2.06 1.98 1.94 1.77 1.71 1.78 1.95 1.78 1.67 1.80 2.09 2.30 2.27 2.11 1.85 1.58 1.37 1.21 1.10 0.95 0.74 0.63 0.69 0.73 0.71 0.70 0.68 0.63 0.52 0.44
2.13 2.14 1.98 1.88 1.92 2.06 2.23 2.26 2.41 2.72 2.49 2.46 2.26 2.11 1.90 1.71 1.54 1.48 1.65 1.83 1.71 1.65 1.78 1.93 2.12 2.21 2.31 2.32 2.17 1.99 1.63 1.36 1.16 0.92 0.73 0.68 0.70 0.66 0.65 0.67 0.66 0.59 0.47
2.03 2.18 1.99 1.83 2.13 2.19 2.28 2.50 2.64 2.66 2.61 2.61 2.38 2.06 1.82 1.69 1.37 1.27 1.29 1.39 1.58 1.39 1.64 1.87 1.92 1.98 2.22 2.49 2.69 2.73 2.35 1.88 1.55 1.29 1.04 0.88 0.87 0.80 0.67 0.62 0.65 0.58 0.45
2.10 2.35 2.31 2.39 2.47 2.50 2.51 2.39 2.68 2.71 2.61 2.60 2.30 2.03 1.66 1.47 1.28 1.13 1.07 1.03 1.17 1.25 1.34 1.47 1.62 1.71 2.08 2.64 2.97 3.12 3.03 2.61 2.07 1.77 1.58 1.40 1.30 1.07 0.82 0.70 0.70 0.67 0.54
2.21 2.55 2.39 2.39 2.49 2.62 2.65 2.57 2.58 2.60 2.35 2.32 2.14 1.90 1.52 1.19 1.10 1.02 0.89 0.86 0.90 0.86 1.03 1.26 1.49 1.33 1.68 2.22 2.61 3.01 3.31 3.16 2.58 2.22 2.08 1.96 1.84 1.54 1.07 0.84 0.79 0.76 0.70
2.20 2.52 2.40 2.53 2.51 2.52 2.53 2.54 2.55 2.40 2.03 2.23 2.32 1.89 1.41 1.09 1.07 0.85 0.76 0.79 0.80 0.79 0.98 1.26 1.43 1.42 1.35 1.43 1.75 2.18 2.76 3.05 2.82 2.48 2.32 2.20 2.21 2.01 1.47 1.14 0.99 0.85 0.84
2.36 2.36 2.45 2.42 2.46 2.55 2.47 2.41 2.46 2.28 1.91 2.05 2.23 2.28 1.69 1.30 1.00 0.71 0.77 0.87 0.95 1.02 1.05 1.15 1.30 1.42 1.41 1.63 1.50 1.44 1.93 2.58 2.98 2.91 2.63 2.22 2.01 1.91 1.70 1.55 1.33 1.13 1.08
2.52 2.49 2.44 2.34 2.27 2.15 2.13 2.19 2.21 2.19 2.02 1.93 2.11 2.39 1.97 1.50 1.24 0.87 0.81 0.88 1.08 1.28 1.25 1.27 1.27 1.41 1.54 1.81 1.93 1.65 1.49 1.81 2.50 3.12 3.13 2.59 2.04 1.76 1.70 1.70 1.67 1.50 1.37
2.38 2.14 2.00 2.05 2.04 1.94 1.90 1.70 1.75 1.87 1.81 1.67 1.81 1.90 1.93 1.95 1.86 1.26 0.90 0.84 1.01 1.17 1.29 1.20 1.18 1.32 1.52 1.72 1.95 1.83 1.46 1.36 1.68 2.49 2.97 2.83 2.39 1.92 1.70 1.74 2.02 2.00 1.66
2.07 1.77 1.67 1.75 1.76 1.69 1.60 1.52 1.61 1.54 1.47 1.45 1.61 1.78 1.85 1.92 1.90 1.76 1.36 1.25 1.21 1.07 1.09 1.13 1.25 1.33 1.38 1.64 1.94 1.77 1.68 1.53 1.43 1.57 1.95 2.27 2.38 2.19 2.05 2.21 2.55 2.72 2.48
1.74 1.49 1.38 1.49 1.59 1.62 1.58 1.53 1.57 1.45 1.44 1.53 1.52 1.59 1.78 1.76 1.78 1.89 1.62 1.47 1.38 1.11 1.09 1.19 1.24 1.40 1.46 1.60 1.62 1.74 1.66 1.42 1.30 1.26 1.35 1.61 1.89 2.00 2.07 2.27 2.70 3.09 3.19
1.46 1.38 1.39 1.46 1.51 1.58 1.49 1.51 1.51 1.53 1.62 1.65 1.57 1.54 1.62 1.63 1.70 1.87 1.84 1.67 1.57 1.39 1.41 1.40 1.27 1.27 1.24 1.38 1.45 1.44 1.28 1.18 1.05 0.99 1.01 1.09 1.22 1.45 1.69 1.96 2.38 2.80 3.09
1.53 1.55 1.52 1.42 1.39 1.45 1.38 1.57 1.50 1.53 1.65 1.65 1.48 1.65 1.67 1.67 1.86 2.04 2.13 2.15 1.94 1.71 1.67 1.68 1.58 1.41 1.33 1.32 1.34 1.29 1.12 1.04 0.87 0.81 0.82 0.84 0.90 1.03 1.25 1.47 1.75 2.05 2.31
1.63 1.73 1.69 1.59 1.48 1.51 1.61 1.83 1.81 1.81 1.94 1.88 1.83 1.95 1.89 1.82 1.89 1.97 2.10 2.21 2.30 2.08 1.92 1.88 1.74 1.47 1.36 1.34 1.30 1.17 1.22 1.11 0.90 0.81 0.75 0.71 0.74 0.83 0.89 0.98 1.14 1.34 1.55
1.53 1.69 1.79 1.74 1.65 1.66 1.80 1.95 1.97 2.09 2.19 2.17 2.20 2.26 2.17 2.02 2.05 2.09 2.07 2.21 2.41 2.36 2.06 1.74 1.58 1.40 1.34 1.21 1.27 1.16 1.16 1.10 0.95 0.85 0.74 0.69 0.68 0.71 0.71 0.75 0.85 0.97 1.14
1.50 1.57 1.70 1.77 1.72 1.72 1.82 1.88 1.87 2.09 2.19 2.19 2.16 2.15 2.07 2.12 2.13 2.03 2.08 2.20 2.37 2.41 2.11 1.73 1.67 1.65 1.61 1.49 1.44 1.34 1.22 1.17 1.01 0.92 0.81 0.75 0.71 0.71 0.72 0.73 0.76 0.80 0.88
1.56 1.59 1.68 1.70 1.62 1.63 1.77 1.80 1.86 2.04 2.12 2.04 1.98 1.97 1.80 1.83 1.87 1.77 1.87 1.95 2.03 2.21 2.16 1.93 1.91 1.92 1.89 1.77 1.70 1.64 1.47 1.27 1.06 1.00 0.87 0.80 0.77 0.73 0.71 0.72 0.75 0.80 0.85
1.55 1.60 1.61 1.62 1.65 1.75 1.81 1.78 1.75 1.72 1.69 1.74 1.90 1.98 1.78 1.75 1.68 1.68 1.71 1.70 1.75 1.88 2.01 1.94 1.92 1.99 1.96 1.93 1.83 1.65 1.54 1.41 1.14 1.06 1.01 0.91 0.84 0.78 0.74 0.73 0.75 0.81 0.88
1.44 1.53 1.60 1.67 1.73 1.77 1.77 1.78 1.78 1.69 1.60 1.60 1.69 1.72 1.67 1.67 1.63 1.71 1.67 1.66 1.67 1.77 1.89 1.91 1.91 2.03 2.05 1.97 1.96 1.80 1.78 1.65 1.47 1.23 1.14 1.02 1.00 0.97 0.91 0.83 0.78 0.80 0.92
1.49 1.57 1.63 1.65 1.62 1.60 1.50 1.48 1.50 1.46 1.50 1.45 1.38 1.37 1.39 1.47 1.48 1.48 1.38 1.50 1.65 1.72 1.76 1.79 1.82 1.98 2.16 2.20 2.02 1.92 1.98 1.92 1.76 1.50 1.39 1.21 1.11 1.04 1.00 0.96 0.92 0.88 0.90
1.53 1.58 1.56 1.61 1.58 1.33 1.42 1.42 1.41 1.54 1.62 1.60 1.50 1.41 1.34 1.29 1.22 1.18 1.15 1.22 1.42 1.55 1.60 1.68 1.69 1.81 2.02 2.23 2.28 2.22 2.12 2.05 2.02 1.88 1.80 1.67 1.44 1.33 1.23 1.13 1.09 1.04 0.98
1.65 1.62 1.57 1.56 1.58 1.62 1.62 1.46 1.33 1.33 1.43 1.47 1.45 1.43 1.27 1.16 1.24 1.19 1.18 1.15 1.17 1.26 1.34 1.47 1.57 1.61 1.77 2.00 2.23 2.19 2.26 2.30 2.28 2.26 2.27 2.21 1.91 1.69 1.47 1.30 1.14 0.92 0.84
1.83 1.80 1.73 1.66 1.67 1.66 1.58 1.39 1.34 1.29 1.35 1.38 1.40 1.41 1.38 1.28 1.29 1.37 1.36 1.30 1.20 1.15 1.19 1.21 1.28 1.41 1.62 1.89 2.15 2.13 2.14 2.23 2.29 2.30 2.35 2.37 2.13 1.93 1.69 1.49 1.34 1.07 0.90
1.90 1.86 1.83 1.86 1.82 1.84 1.85 1.64 1.59 1.47 1.52 1.54 1.54 1.51 1.47 1.38 1.45 1.38 1.32 1.31 1.25 1.22 1.22 1.24 1.22 1.34 1.55 1.66 1.83 1.92 1.92 1.98 1.93 1.87 2.00 2.19 2.19 2.10 1.94 1.67 1.41 1.20 0.96
1.97 2.02 2.03 2.03 2.03 2.08 2.24 2.00 1.81 1.66 1.71 1.73 1.80 1.74 1.67 1.52 1.51 1.41 1.28 1.31 1.28 1.28 1.34 1.31 1.25 1.25 1.29 1.46 1.63 1.68 1.82 1.95 1.86 1.73 1.53 1.63 1.81 1.98 2.11 1.93 1.67 1.45 1.29

GEFSMA_prec_meanprecacc_216.txt.gz
Total_Precipitation_Accumulation
2.05 2.04 1.99 1.96 1.85 1.93 2.09 2.29 2.32 2.67 2.78 2.41 2.02 1.89 1.88 1.95 1.86 1.85 1.77 1.68 1.61 1.74 2.12 2.36 2.23 1.99 1.69 1.45 1.31 1.19 1.07 0.93 0.84 0.74 0.74 0.82 0.81 0.75 0.68 0.62 0.57 0.49 0.43
2.18 2.29 2.14 2.10 1.96 1.91 2.07 2.25 2.41 2.91 2.93 2.73 2.30 2.07 1.98 1.94 1.78 1.71 1.80 1.98 1.79 1.68 1.81 2.10 2.31 2.29 2.14 1.89 1.62 1.42 1.26 1.16 0.99 0.77 0.67 0.72 0.75 0.73 0.72 0.70 0.65 0.54 0.45
2.17 2.19 2.02 1.91 1.95 2.08 2.25 2.28 2.41 2.73 2.49 2.47 2.27 2.11 1.90 1.71 1.54 1.50 1.67 1.85 1.73 1.67 1.79 1.93 2.13 2.23 2.33 2.36 2.20 2.03 1.67 1.41 1.20 0.97 0.79 0.73 0.75 0.70 0.68 0.71 0.69 0.61 0.49
2.06 2.22 2.02 1.86 2.17 2.22 2.30 2.53 2.67 2.68 2.63 2.62 2.39 2.07 1.83 1.70 1.38 1.27 1.30 1.41 1.61 1.42 1.67 1.88 1.93 2.00 2.24 2.52 2.74 2.77 2.40 1.95 1.62 1.39 1.13 0.97 0.94 0.86 0.71 0.66 0.69 0.61 0.47
2.12 2.39 2.36 2.43 2.50 2.54 2.56 2.42 2.74 2.77 2.66 2.67 2.32 2.05 1.67 1.48 1.29 1.14 1.08 1.05 1.20 1.29 1.37 1.49 1.63 1.73 2.10 2.69 3.03 3.19 3.11 2.69 2.16 1.85 1.64 1.47 1.39 1.16 0.89 0.76 0.75 0.71 0.57
2.23 2.58 2.44 2.44 2.53 2.67 2.71 2.64 2.68 2.69 2.43 2.39 2.17 1.93 1.53 1.21 1.12 1.05 0.91 0.88 0.93 0.91 1.07 1.32 1.55 1.38 1.73 2.27 2.67 3.09 3.41 3.24 2.65 2.28 2.13 2.01 1.90 1.61 1.13 0.90 0.85 0.81 0.75
2.23 2.56 2.45 2.62 2.58 2.59 2.59 2.62 2.65 2.51 2.12 2.31 2.41 1.95 1.43 1.10 1.09 0.86 0.78 0.81 0.84 0.84 1.04 1.34 1.54 1.53 1.42 1.49 1.81 2.24 2.82 3.13 2.90 2.56 2.41 2.28 2.28 2.06 1.51 1.18 1.05 0.91 0.89
2.40 2.42 2.53 2.50 2.55 2.66 2.57 2.52 2.57 2.38 2.00 2.14 2.35 2.42 1.81 1.41 1.07 0.74 0.80 0.91 1.00 1.10 1.13 1.24 1.41 1.56 1.53 1.74 1.59 1.50 1.99 2.64 3.06 3.00 2.71 2.29 2.08 1.97 1.75 1.60 1.38 1.18 1.13
2.58 2.54 2.52 2.42 2.36 2.23 2.26 2.33 2.33 2.31 2.15 2.05 2.24 2.52 2.13 1.66 1.36 0.94 0.85 0.91 1.12 1.34 1.34 1.38 1.37 1.53 1.66 1.96 2.06 1.78 1.57 1.88 2.59 3.23 3.24 2.68 2.12 1.83 1.76 1.75 1.73 1.56 1.43
2.45 2.21 2.08 2.14 2.12 2.02 2.03 1.82 1.89 2.01 1.98 1.82 1.96 2.02 2.04 2.08 2.01 1.41 1.01 0.91 1.08 1.24 1.36 1.28 1.27 1.43 1.65 1.86 2.08 1.96 1.57 1.46 1.80 2.61 3.07 2.93 2.49 2.02 1.79 1.81 2.10 2.08 1.74
2.15 1.84 1.74 1.82 1.83 1.76 1.69 1.62 1.75 1.67 1.61 1.57 1.73 1.88 1.96 2.04 2.01 1.89 1.51 1.41 1.38 1.21 1.20 1.23 1.36 1.47 1.52 1.78 2.09 1.91 1.81 1.66 1.54 1.66 2.03 2.36 2.48 2.29 2.16 2.32 2.67 2.84 2.59
1.83 1.56 1.43 1.55 1.65 1.68 1.64 1.61 1.68 1.57 1.56 1.66 1.64 1.69 1.87 1.86 1.87 2.02 1.76 1.65 1.59 1.30 1.22 1.31 1.36 1.52 1.57 1.72 1.76 1.88 1.79 1.54 1.40 1.35 1.43 1.69 1.98 2.11 2.18 2.40 2.83 3.22 3.34
1.53 1.46 1.45 1.53 1.57 1.64 1.55 1.58 1.62 1.66 1.75 1.78 1.69 1.65 1.72 1.72 1.78 1.98 1.98 1.82 1.73 1.55 1.54 1.51 1.37 1.36 1.31 1.44 1.52 1.52 1.34 1.23 1.11 1.06 1.08 1.15 1.29 1.52 1.76 2.05 2.49 2.92 3.22
1.60 1.63 1.60 1.49 1.45 1.52 1.45 1.66 1.60 1.64 1.77 1.76 1.58 1.76 1.77 1.76 1.95 2.13 2.24 2.30 2.10 1.85 1.79 1.78 1.67 1.48 1.37 1.36 1.38 1.32 1.14 1.07 0.89 0.84 0.85 0.88 0.94 1.07 1.29 1.52 1.81 2.12 2.39
1.71 1.81 1.77 1.65 1.54 1.59 1.69 1.92 1.88 1.89 2.04 1.97 1.91 2.04 1.96 1.87 1.95 2.05 2.20 2.36 2.45 2.20 2.03 1.97 1.81 1.54 1.41 1.39 1.35 1.20 1.24 1.13 0.92 0.82 0.77 0.73 0.75 0.84 0.91 1.01 1.18 1.38 1.59
1.59 1.75 1.86 1.81 1.73 1.74 1.87 2.03 2.04 2.17 2.28 2.24 2.26 2.33 2.24 2.08 2.13 2.18 2.17 2.33 2.55 2.49 2.18 1.85 1.69 1.50 1.41 1.25 1.32 1.21 1.20 1.13 0.98 0.87 0.76 0.71 0.71 0.73 0.73 0.77 0.87 0.99 1.16
1.57 1.64 1.79 1.86 1.80 1.79 1.90 1.97 1.93 2.15 2.25 2.25 2.21 2.21 2.16 2.23 2.23 2.14 2.19 2.33 2.51 2.55 2.25 1.83 1.76 1.74 1.70 1.57 1.50 1.39 1.27 1.21 1.04 0.95 0.84 0.78 0.74 0.73 0.73 0.74 0.77 0.82 0.89
1.62 1.68 1.78 1.78 1.69 1.70 1.85 1.88 1.92 2.10 2.17 2.09 2.04 2.05 1.89 1.93 1.96 1.85 1.96 2.03 2.13 2.32 2.27 2.02 2.00 2.00 1.96 1.84 1.76 1.69 1.52 1.32 1.10 1.04 0.90 0.83 0.80 0.75 0.73 0.74 0.77 0.82 0.87
1.61 1.66 1.67 1.68 1.71 1.82 1.89 1.87 1.84 1.80 1.77 1.81 1.97 2.04 1.85 1.82 1.74 1.74 1.78 1.76 1.82 1.95 2.10 2.05 2.01 2.07 2.02 1.98 1.88 1.70 1.59 1.46 1.18 1.09 1.03 0.94 0.87 0.80 0.76 0.76 0.78 0.85 0.92
1.49 1.58 1.64 1.72 1.78 1.83 1.85 1.88 1.87 1.78 1.71 1.70 1.78 1.81 1.77 1.73 1.68 1.76 1.71 1.71 1.74 1.85 1.97 1.99 1.97 2.08 2.10 2.01 2.01 1.83 1.81 1.68 1.49 1.25 1.16 1.05 1.04 1.01 0.95 0.88 0.84 0.86 0.96
1.53 1.60 1.67 1.70 1.69 1.69 1.58 1.57 1.60 1.58 1.64 1.57 1.49 1.49 1.49 1.54 1.54 1.53 1.43 1.56 1.71 1.79 1.82 1.85 1.87 2.03 2.20 2.24 2.06 1.96 2.01 1.96 1.79 1.52 1.41 1.25 1.17 1.10 1.07 1.02 0.96 0.91 0.92
1.57 1.61 1.60 1.67 1.66 1.43 1.51 1.50 1.49 1.60 1.69 1.67 1.57 1.49 1.41 1.36 1.28 1.23 1.21 1.28 1.48 1.62 1.67 1.74 1.75 1.87 2.07 2.27 2.32 2.26 2.16 2.09 2.05 1.90 1.82 1.70 1.48 1.37 1.26 1.15 1.10 1.05 0.98
1.68 1.65 1.60 1.59 1.63 1.68 1.68 1.51 1.37 1.37 1.48 1.51 1.50 1.48 1.33 1.22 1.31 1.26 1.25 1.22 1.24 1.34 1.42 1.55 1.64 1.67 1.81 2.04 2.27 2.23 2.30 2.33 2.31 2.28 2.29 2.23 1.93 1.71 1.48 1.31 1.15 0.93 0.85
1.85 1.82 1.76 1.69 1.70 1.69 1.61 1.41 1.37 1.33 1.39 1.42 1.45 1.46 1.45 1.37 1.38 1.45 1.44 1.38 1.27 1.22 1.24 1.27 1.35 1.47 1.67 1.93 2.19 2.17 2.18 2.27 2.32 2.32 2.37 2.39 2.14 1.95 1.70 1.50 1.35 1.09 0.91
1.92 1.87 1.85 1.88 1.84 1.86 1.87 1.67 1.62 1.51 1.55 1.58 1.59 1.58 1.55 1.48 1.56 1.49 1.41 1.38 1.31 1.26 1.25 1.29 1.27 1.40 1.60 1.70 1.87 1.96 1.95 2.01 1.96 1.89 2.02 2.21 2.20 2.12 1.96 1.69 1.43 1.22 0.98
1.98 2.03 2.05 2.05 2.05 2.10 2.27 2.04 1.83 1.68 1.73 1.74 1.82 1.78 1.75 1.61 1.60 1.50 1.37 1.38 1.34 1.33 1.39 1.36 1.30 1.30 1.35 1.51 1.68 1.72 1.85 1.98 1.88 1.74 1.54 1.64 1.83 2.00 2.14 1.95 1.68 1.47 1.31

GEFSMA_prec_meanprecacc_222.txt.gz
Total_Precipitation_Accumulation
2.07 2.07 2.02 2.00 1.88 1.96 2.12 2.31 2.36 2.69 2.81 2.44 2.06 1.93 1.91 1.98 1.91 1.88 1.80 1.69 1.62 1.76 2.14 2.38 2.24 2.00 1.71 1.47 1.33 1.22 1.10 0.96 0.87 0.76 0.76 0.83 0.83 0.77 0.70 0.63 0.58 0.50 0.44
2.19 2.31 2.16 2.13 1.99 1.95 2.11 2.29 2.45 2.94 2.95 2.76 2.34 2.10 2.02 1.97 1.81 1.73 1.81 1.99 1.80 1.68 1.82 2.11 2.33 2.30 2.15 1.91 1.64 1.44 1.28 1.18 1.03 0.81 0.70 0.75 0.77 0.75 0.75 0.73 0.66 0.56 0.47
2.18 2.21 2.04 1.94 1.99 2.12 2.30 2.32 2.45 2.76 2.52 2.52 2.31 2.13 1.93 1.74 1.57 1.52 1.70 1.87 1.75 1.69 1.81 1.96 2.15 2.25 2.36 2.40 2.24 2.06 1.70 1.44 1.24 1.01 0.83 0.77 0.79 0.74 0.72 0.74 0.72 0.65 0.53
2.07 2.23 2.04 1.89 2.20 2.27 2.35 2.57 2.71 2.72 2.67 2.68 2.44 2.09 1.85 1.73 1.40 1.29 1.32 1.45 1.65 1.45 1.70 1.92 1.98 2.05 2.29 2.59 2.82 2.85 2.47 2.00 1.66 1.42 1.16 1.00 0.97 0.89 0.75 0.70 0.73 0.68 0.52
2.13 2.39 2.37 2.46 2.52 2.57 2.60 2.47 2.78 2.81 2.70 2.71 2.36 2.08 1.71 1.52 1.33 1.18 1.13 1.11 1.27 1.37 1.45 1.57 1.69 1.79 2.17 2.78 3.11 3.28 3.20 2.76 2.20 1.87 1.66 1.49 1.41 1.18 0.91 0.79 0.79 0.75 0.61
2.25 2.60 2.46 2.46 2.55 2.70 2.74 2.68 2.72 2.72 2.46 2.43 2.20 1.97 1.58 1.26 1.18 1.12 0.98 0.97 1.05 1.05 1.29 1.56 1.71 1.50 1.82 2.39 2.76 3.18 3.49 3.31 2.70 2.33 2.18 2.06 1.95 1.64 1.16 0.92 0.87 0.84 0.78
2.24 2.58 2.48 2.65 2.60 2.61 2.62 2.64 2.68 2.54 2.17 2.36 2.45 1.99 1.47 1.16 1.17 0.97 0.88 0.92 0.98 1.01 1.27 1.55 1.71 1.67 1.51 1.59 1.88 2.32 2.90 3.20 2.99 2.65 2.49 2.36 2.35 2.12 1.55 1.23 1.10 0.96 0.94
2.44 2.45 2.57 2.54 2.57 2.68 2.59 2.54 2.60 2.43 2.05 2.19 2.41 2.47 1.86 1.49 1.16 0.83 0.92 1.03 1.12 1.24 1.30 1.40 1.57 1.73 1.70 1.87 1.68 1.59 2.07 2.74 3.17 3.13 2.83 2.39 2.16 2.03 1.81 1.66 1.44 1.23 1.17
2.63 2.60 2.57 2.46 2.40 2.27 2.30 2.36 2.36 2.35 2.22 2.11 2.31 2.58 2.18 1.71 1.41 1.03 1.00 1.07 1.24 1.44 1.45 1.50 1.53 1.71 1.84 2.14 2.22 1.97 1.75 2.00 2.69 3.38 3.43 2.86 2.27 1.95 1.85 1.84 1.81 1.62 1.49
2.50 2.27 2.16 2.20 2.18 2.06 2.06 1.85 1.93 2.07 2.05 1.88 2.03 2.09 2.11 2.14 2.05 1.48 1.13 1.03 1.19 1.34 1.46 1.37 1.38 1.58 1.87 2.05 2.22 2.12 1.72 1.56 1.89 2.74 3.23 3.09 2.62 2.13 1.87 1.90 2.21 2.21 1.88
2.20 1.89 1.81 1.88 1.87 1.79 1.72 1.67 1.80 1.72 1.66 1.64 1.79 1.97 2.04 2.11 2.08 1.95 1.56 1.47 1.48 1.39 1.33 1.34 1.48 1.61 1.72 1.95 2.22 2.02 1.90 1.75 1.64 1.74 2.12 2.45 2.58 2.40 2.27 2.42 2.78 2.97 2.72
1.88 1.62 1.49 1.60 1.70 1.73 1.68 1.65 1.73 1.63 1.62 1.72 1.70 1.76 1.96 1.97 1.97 2.10 1.81 1.68 1.64 1.43 1.36 1.42 1.48 1.65 1.70 1.84 1.87 1.97 1.89 1.65 1.49 1.43 1.52 1.77 2.05 2.19 2.27 2.50 2.94 3.33 3.46
1.59 1.53 1.53 1.58 1.63 1.71 1.61 1.63 1.68 1.72 1.82 1.86 1.77 1.72 1.81 1.84 1.90 2.05 2.04 1.86 1.78 1.63 1.64 1.61 1.47 1.49 1.42 1.55 1.63 1.63 1.43 1.32 1.17 1.12 1.15 1.23 1.37 1.60 1.84 2.13 2.55 3.00 3.31
1.69 1.72 1.67 1.55 1.52 1.61 1.53 1.72 1.65 1.68 1.84 1.83 1.63 1.82 1.86 1.87 2.06 2.23 2.31 2.37 2.17 1.94 1.88 1.87 1.75 1.55 1.44 1.44 1.46 1.40 1.20 1.13 0.94 0.89 0.90 0.92 0.98 1.12 1.34 1.56 1.85 2.15 2.42
1.81 1.91 1.84 1.71 1.61 1.66 1.78 2.00 1.94 1.93 2.08 2.02 1.96 2.10 2.05 1.95 2.04 2.13 2.28 2.43 2.53 2.29 2.13 2.07 1.90 1.62 1.48 1.46 1.43 1.27 1.29 1.18 0.98 0.89 0.83 0.78 0.79 0.88 0.94 1.04 1.20 1.41 1.62
1.68 1.82 1.94 1.88 1.79 1.80 1.95 2.09 2.09 2.22 2.34 2.28 2.31 2.38 2.30 2.15 2.18 2.23 2.24 2.40 2.62 2.56 2.26 1.93 1.77 1.57 1.47 1.31 1.38 1.26 1.25 1.20 1.05 0.94 0.82 0.75 0.74 0.77 0.76 0.80 0.90 1.01 1.18
1.63 1.70 1.86 1.93 1.87 1.86 1.98 2.03 1.98 2.22 2.32 2.30 2.27 2.27 2.22 2.27 2.27 2.17 2.23 2.37 2.56 2.61 2.31 1.89 1.80 1.79 1.75 1.61 1.54 1.44 1.32 1.25 1.08 0.99 0.87 0.82 0.77 0.76 0.76 0.76 0.79 0.83 0.91
1.68 1.74 1.84 1.86 1.76 1.77 1.91 1.94 1.99 2.19 2.27 2.16 2.11 2.10 1.93 1.97 2.00 1.89 1.99 2.07 2.17 2.36 2.32 2.07 2.04 2.05 2.01 1.88 1.82 1.75 1.57 1.35 1.12 1.07 0.93 0.86 0.82 0.77 0.74 0.75 0.79 0.83 0.89
1.65 1.71 1.71 1.72 1.76 1.87 1.95 1.94 1.93 1.91 1.89 1.94 2.11 2.16 1.94 1.93 1.83 1.81 1.83 1.80 1.87 2.00 2.15 2.09 2.05 2.10 2.05 2.02 1.93 1.74 1.63 1.49 1.20 1.11 1.05 0.96 0.88 0.81 0.77 0.77 0.79 0.86 0.94
1.54 1.61 1.67 1.75 1.81 1.87 1.90 1.94 1.96 1.89 1.85 1.86 1.96 1.99 1.92 1.87 1.79 1.87 1.81 1.78 1.80 1.91 2.03 2.05 2.02 2.14 2.15 2.07 2.06 1.87 1.85 1.71 1.52 1.27 1.18 1.06 1.04 1.02 0.96 0.89 0.85 0.87 0.98
1.59 1.64 1.70 1.73 1.72 1.72 1.63 1.63 1.68 1.68 1.78 1.75 1.66 1.66 1.64 1.70 1.69 1.68 1.54 1.65 1.79 1.86 1.90 1.92 1.95 2.11 2.28 2.31 2.12 2.02 2.07 2.00 1.82 1.55 1.43 1.26 1.17 1.11 1.07 1.03 0.97 0.92 0.93
1.62 1.64 1.63 1.70 1.69 1.46 1.58 1.56 1.53 1.65 1.74 1.73 1.64 1.55 1.47 1.45 1.40 1.37 1.33 1.38 1.57 1.72 1.78 1.86 1.87 1.98 2.18 2.37 2.42 2.36 2.24 2.14 2.09 1.93 1.85 1.72 1.49 1.38 1.27 1.16 1.12 1.06 0.99
1.70 1.68 1.63 1.62 1.65 1.70 1.70 1.52 1.39 1.40 1.51 1.55 1.52 1.50 1.34 1.25 1.36 1.32 1.33 1.30 1.31 1.43 1.53 1.67 1.76 1.76 1.91 2.14 2.37 2.32 2.37 2.38 2.35 2.32 2.32 2.25 1.94 1.72 1.49 1.32 1.17 0.94 0.86
1.89 1.86 1.80 1.71 1.72 1.71 1.63 1.43 1.40 1.36 1.41 1.44 1.46 1.48 1.46 1.39 1.40 1.48 1.48 1.42 1.31 1.27 1.31 1.35 1.45 1.56 1.76 2.01 2.26 2.24 2.24 2.32 2.35 2.34 2.39 2.40 2.15 1.96 1.71 1.51 1.36 1.10 0.92
1.96 1.91 1.88 1.91 1.86 1.88 1.89 1.69 1.65 1.54 1.56 1.59 1.60 1.59 1.57 1.50 1.58 1.51 1.45 1.43 1.38 1.36 1.35 1.38 1.36 1.48 1.68 1.78 1.93 2.01 2.00 2.04 1.98 1.91 2.04 2.22 2.21 2.13 1.97 1.70 1.44 1.24 1.00
2.02 2.07 2.09 2.07 2.07 2.11 2.29 2.06 1.88 1.73 1.76 1.77 1.84 1.80 1.77 1.63 1.62 1.52 1.41 1.44 1.44 1.44 1.47 1.42 1.36 1.35 1.40 1.58 1.74 1.77 1.90 2.02 1.90 1.76 1.56 1.66 1.85 2.03 2.17 1.97 1.70 1.48 1.33